FENGYUN 1C DEB

Satellite information

Favourite Embed

Satellite Type and Status

DEBRISIN ORBIT

Key statistics

Satellite FENGYUN 1C DEB at a glance.

Uptime

9658

Days in orbit

Revolutions

≈ 14.1

Per day

Orbit

SSO

Sun Synchronous Orbit

Inclination

99.0

Latest

Satellite identification and parameters

Extended collection of information and parameters for FENGYUN 1C DEB.

Object identification

Identified? True

Debris? True

Object name: FENGYUN 1C DEB

International designator: 1999-025BFU

Object number (NORAD): 31074

Object ID (CCSDS): 31074

Country: PEOPLES REPUBLIC OF CHINA (PRC)

Current information (Y/N): Y

RCS size: SMALL

Orbital parameters

Period: 101.88 minutes

Inclination: 98.955 deg

SMA: 7225.813 km

Apoapsis: 913.979 km

Periapsis: 781.376 km

RAAN: 205.6039 deg

Eccentricy: 0.00917567

Argument of periapsis: 60.9058 deg

Mean anomaly: 300.1264 deg

Mean motion: 14.13424822 rev/day

Mean motion (dot): 0.00006283 rev/day2

B* drag term: 0.0032313611 1/REarth

Two-line elements (TLE)

Creation date: Oct. 18, 2025, 2:17 a.m.

Reference frame: TEME

Reference center: EARTH

Epoch: Oct. 17, 2025, 5:22 p.m. UTC

TLE line 0: 0 FENGYUN 1C DEB

TLE line 1: 1 31074U 99025BFU 25290.72377856 .00006283 00000-0 32314-2 0 9997

TLE line 2: 2 31074 98.9550 205.6039 0091757 60.9058 300.1264 14.13424822947888

Live tracking on map

Real-time ground track for satellite FENGYUN 1C DEB.

In-orbit conjunctions

A list of the most updated potential collisions computed for object FENGYUN 1C DEB.

Target Orbit TCA Probability of collision Miss distance Type
SKIPPER SSO 2025-06-29 18:13:29 0.0001505188 865.0 (m) PAYLOAD
COSMOS 1741 LEO 2024-11-15 23:40:38 0.0001006582 161.0 (m) PAYLOAD
SL-8 DEB LEO 2024-11-09 18:34:02 0.0001358107 922.0 (m) DEBRIS

Associated space launch

Chinese polar orbiting meteorological satellite

FENGYUN 1C DEB was lifted into orbit during the mission ‘Long March 4B | Feng Yun 1C’, on board a Long March 4B space rocket.

The launch took place on May 10, 1999, 1:33 a.m. from Launch Complex 7.

For more information about the launch, click the button.

Launch to space Long March 4B | Feng Yun 1C
Long March 4B | Feng Yun 1C

Agency: N/A

Status: Launch Successful

Launch date: May 10, 1999, 1:33 a.m. UTC

Rocket: Long March 4B

Launch pad: Launch Complex 7

Location: Taiyuan Satellite Launch Center, People's Republic of China

...

Latest news about this satellite

There are no fresh news available about this satellite. Check back as we update our databases every day.


Newsletter sign-up

Weekly statistics, charts and insights to help you stay on top of the space industry.